ONEWEB-0114 (47262 NORAD) Tracking and Keplerian Element Data

This shows tracking and keplerian element data for the satellite.

Feedback or suggestion? Click here.




ElementValue
Catalog47262
NameONEWEB-0114
Epoch Orbit174
Epoch Day62.91667824
Epoch Year2021
RAAN15.3253
Inclination87.5549
Eccentricity0.0010859
Argument of Perigee18.5254
Mean Anonmoly115.6261
Mean Motion13.8188863
Decay Rate-0.00926611
L11 47262U 20100E 21062.91667824 -.00926611 00000-0 -91072+0 0 9993
L22 47262 87.5549 15.3253 0010859 18.5254 115.6261 13.81888630 1748

Live tracking and technical data element details for ONEWEB-0114 (NORAD 47262). ONEWEB-0114 can be tracked NOW for your location showing map with azimuth and elevation plus other details from your city location.

Track the satellite on the map from your city or location and see movement details for azimuth, elevation, latitude, longitude, range, height, and movement on the map or in text.







IsCatalogInMostPopularTable: catalog: 47262, numindb: 28
Update: records affected: 1



GetName: 47262 ONEWEB-0114

Hit Count: updated at: Fri, 05 Mar 2021 07:17:16 GMT